STARLINK-2411, 47826

Orbit data source: Space-Track

STARLINK-2411, 47826 is a payload satellite owned by SpaceX/Seattle (US) in LEO that was launched on Thu, 11 Mar 2021 UTC via an FALCON 9 launch vehicle from the Air Force Eastern Test Range (AFETR). Payload-class satellites include a variety of spacecraft equipped with specific instruments for various scientific and technological missions. These include communications satellites like Starlink; space stations such as the ISS; scientific satellites like the Hubble; Earth observation satellites from companies like Planet Labs, Umbra, and HawkEye 360; GPS; miniature CubeSats for education and research; and military/defense satellites.

Loading next visibility...
Identifier
47826, 2021-018AR
Orbit
LEO
Country
Flag of USUS
Related business
Manufacturer
SpaceX/Seattle
Mission
Operational Commercial Communications
Bus & Motor
STARLINK, Unknown motor
Mass
260 kg wet, ~248 kg dry
Launch date (UTC)
2021-03-11 (5 years ago)
Launch vehicle
FALCON 9
Launch site
Air Force Eastern Test Range (AFETR)
Object type
Payload
Rocket body
Debris
Shape & HBR
Box + 1 Pan, 10.1 m
Radar Cross Section
13.562 m², Large (>1 m²)

Expand to show TLE details & history
Last TLE update: 2 days ago

TLE from 2 days ago
0 STARLINK-2411
1 47826U 21018AR  26171.17359836 -.00000117  00000-0  80187-5 0  9997
2 47826  53.1622 128.6108 0001556 106.2342 253.8831 15.31695987292398
Epoch: 2026-06-20T04:09Z
TLE epoch observation values (Epoch: 2026-06-20T04:09:58.898Z)
Latitude
0.00001°
Longitude
157.72338°
Altitude
471.948 km
Speed
7.631 km/s
True Right ascension
08h 34m 26s
True Declination
0° 00' 00"
Sunlit
Object was in daylight at epoch
Visualization orbit readout
Latitude
Unknown
Longitude
Unknown
Altitude
Unknown
Speed
Unknown
Apparent Right ascension
Unknown
Apparent Declination
Unknown
Sunlit
N/A
Visualization observer readout
Local Sidereal Time
21:43:32
Azimuth
Unknown
Elevation
Unknown
Doppler factor
Unknown
Orbital elements
Apogee altitude
472.074 km
Perigee altitude
469.942 km
Semi-major axis
6,849.145 km
Eccentricity
0.00016
Inclination
53.1622°
RAAN
128.6108°
Arg. of periapsis
106.2342°
True anomaly
253.86597°
Mean anomaly
253.8831°
Eccentric anomaly
253.87454°
Mean motion
3.82903 °/min
Orbital period
94.02 mins
BSTAR
0.0000080187
Loading maneuver chart data...
Computing Atmospheric mass density...

Documentation

Showing up to 5 results
|